Location: Easthampton
(42.2676°N, 72.6690°W)
Time: 06:21:32
(UTC+00:00)

N. Korean satellite - Pass Details

Date: 11 December 2022
Orbit: 407 x 444 km, 97.3° (Epoch: 28 January)

Event Time Altitude Azimuth Distance (km) Brightness Sun altitude
Rises 09:50:58 0° 18° (NNE) 2,480 10.3 -24.8°
Reaches altitude 10° 09:53:06 10° 25° (NNE) 1,592 9.3 -24.4°
Maximum altitude 09:56:23 45° 99° (E) 621 7.5 -23.8°
Drops below altitude 10° 09:59:35 10° 173° (S) 1,548 9.3 -23.2°
Sets 10:01:37 0° 180° (S) 2,400 10.2 -22.8°
